Weather History for KTYS - March, 2013

Change the Weather History Date:

Tuesday, March 12, 2013

  Actual Average Record
Temperature  
Mean Temperature 46 °F 49 °F  
Max Temperature 53 °F 60 °F 81 °F (1911)
Min Temperature 38 °F 38 °F 18 °F (1969)
Degree Days  
Heating Degree Days 19 16  
Month to date heating degree days 283 209  
Since 1 July heating degree days 2975 3105  
Cooling Degree Days 0 0  
Month to date cooling degree days 0 0  
Year to date cooling degree days 2 0  
Moisture  
Dew Point 32 °F    
Average Humidity 64    
Maximum Humidity 83    
Minimum Humidity 44    
Precipitation  
Precipitation T in 0.13 in 3.25 in (1963)
Month to date precipitation 2.49 1.65  
Year to date precipitation 17.58 10.23  
Snow  
Snow 0.00 in 0.00 in - ()
Month to date snowfall 0.9 0.4  
Since 1 July snowfall 3.5 5.5  
Snow Depth 0.00 in    
Sea Level Pressure  
Sea Level Pressure 30.01 in    
Wind  
Wind Speed 6 mph (WSW)    
Max Wind Speed 12 mph    
Max Gust Speed 14 mph    
Visibility 10 miles    
Events Rain    
T = Trace of Precipitation, MM = Missing Value Source: NWS Daily Summary

Daily Weather History Graph

Daily Weather History Graph

Search for Another Location

Airport or City:

Trip Planner

Search our weather history database for the weather conditions in past years. The results will help you decide how hot, cold, wet, or windy it might be!

Date:

Astronomy

Mar. 12, 2013 Rise Set
Actual Time 7:50 AM EDT 7:41 PM EDT
Civil Twilight 7:25 AM EDT 8:06 PM EDT
Nautical Twilight 6:55 AM EDT 8:36 PM EDT
Astronomical Twilight 6:25 AM EDT 9:06 PM EDT
Moon 7:59 AM EDT (3/12) 8:51 PM EDT (3/12)
Length of Visible Light 12h 41m
Length of Day
11h 50m
New Moon, 1% of the Moon is Illuminated
Mar 12
New Moon
Mar 19
First Quarter
Mar 27
Full
Apr 3
Last Quarter
Apr 10
New

Hourly Weather History & Observations

Time (EDT) Temp. Windchill Dew Point Humidity Pressure Visibility Wind Dir Wind Speed Gust Speed Precip Events Conditions
12:37 AM 44.6 °F 40.7 °F 39.2 °F 81% 29.89 in 10.0 mi West 6.9 mph - 0.03 in Rain Light Rain
12:53 AM 44.1 °F 39.0 °F 39.0 °F 82% 29.89 in 10.0 mi West 9.2 mph - 0.03 in Rain Light Rain
1:53 AM 42.1 °F 36.6 °F 37.0 °F 82% 29.90 in 10.0 mi West 9.2 mph - 0.00 in Rain Light Rain
2:53 AM 42.1 °F 36.6 °F 36.0 °F 79% 29.91 in 10.0 mi WSW 9.2 mph - 0.00 in   Overcast
3:53 AM 41.0 °F 35.8 °F 34.0 °F 76% 29.92 in 10.0 mi WSW 8.1 mph - N/A   Overcast
4:28 AM 41.0 °F 37.1 °F 33.8 °F 76% 29.92 in 10.0 mi West 5.8 mph - N/A   Overcast
4:53 AM 39.9 °F 34.5 °F 34.0 °F 79% 29.93 in 10.0 mi WSW 8.1 mph - N/A   Overcast
5:53 AM 39.9 °F 35.1 °F 33.1 °F 77% 29.94 in 10.0 mi West 6.9 mph - N/A   Overcast
6:53 AM 39.0 °F 34.0 °F 32.0 °F 76% 29.97 in 10.0 mi West 6.9 mph - N/A   Overcast
7:53 AM 37.9 °F - 30.9 °F 76% 30.00 in 10.0 mi Calm Calm - N/A   Overcast
8:53 AM 37.9 °F 35.5 °F 30.9 °F 76% 30.01 in 10.0 mi SW 3.5 mph - N/A   Overcast
9:53 AM 39.9 °F 37.8 °F 30.9 °F 70% 30.02 in 10.0 mi NE 3.5 mph - N/A   Overcast
10:53 AM 41.0 °F 38.0 °F 30.9 °F 67% 30.05 in 10.0 mi NW 4.6 mph - N/A   Overcast
11:53 AM 42.1 °F 40.2 °F 30.9 °F 65% 30.06 in 10.0 mi NNW 3.5 mph - N/A   Overcast
12:44 PM 44.6 °F 40.7 °F 30.2 °F 57% 30.07 in 10.0 mi West 6.9 mph - N/A   Mostly Cloudy
12:53 PM 44.1 °F 42.5 °F 32.0 °F 63% 30.08 in 10.0 mi West 3.5 mph - N/A   Mostly Cloudy
1:53 PM 44.1 °F - 30.0 °F 58% 30.07 in 10.0 mi Calm Calm - N/A   Scattered Clouds
2:53 PM 48.9 °F - 34.0 °F 56% 30.04 in 10.0 mi SW 9.2 mph - N/A   Partly Cloudy
3:53 PM 51.1 °F - 33.1 °F 50% 30.03 in 10.0 mi Variable 3.5 mph - N/A   Partly Cloudy
4:53 PM 51.1 °F - 32.0 °F 48% 30.02 in 10.0 mi SW 5.8 mph - N/A   Partly Cloudy
5:53 PM 52.0 °F - 32.0 °F 47% 30.03 in 10.0 mi SSW 8.1 mph - N/A   Partly Cloudy
6:53 PM 51.1 °F - 30.9 °F 46% 30.02 in 10.0 mi SW 5.8 mph - N/A   Clear
7:53 PM 48.9 °F - 28.9 °F 46% 30.04 in 10.0 mi West 5.8 mph - N/A   Clear
8:53 PM 45.0 °F 41.8 °F 28.9 °F 53% 30.06 in 10.0 mi SSW 5.8 mph - N/A   Clear
9:53 PM 45.0 °F 40.1 °F 28.9 °F 53% 30.09 in 10.0 mi West 9.2 mph - N/A   Clear
10:53 PM 44.1 °F 40.1 °F 28.0 °F 53% 30.09 in 10.0 mi WSW 6.9 mph - N/A   Clear
11:53 PM 41.0 °F 35.8 °F 28.9 °F 62% 30.12 in 10.0 mi WSW 8.1 mph - N/A   Clear